Home > Weather > Portsmouth > Past weeks

Flag for U.S.A. Weather for the Past 2 Weeks in Portsmouth, Virginia, U.S.A.

Now
32 °F

Scattered clouds.


Feels Like: 21 °F
Forecast: 22 / 31 °F
Wind: 17 mph from Northwest

Location: Norfolk Naval Air Station

Current Time: Feb 13, 2016 at 12:29:48 PM

Latest Report: Feb 13, 2016 at 11:59 AM


Visibility: 10 mi

Pressure: 30.26 "Hg

Humidity: 30%

Dew point: 4 °F

Location of PortsmouthLocation

Historic Weather in Portsmouth — Graph

°F

Portsmouth Temperature Yesterday

Maximum temperature yesterday: 31 °F (at 11:59 AM)
Minimum temperature yesterday: 25 °F (at 5:59 AM)
Average temperature yesterday: 28 °F

High & Low Weather Summary for the Past Weeks

 TemperatureHumidityPressure
High76 °F (Feb 3, 11:59 AM)94% (Feb 4, 1:59 AM)30.49 "Hg (Feb 4, 1:59 AM)
Low25 °F (Feb 11, 6:59 AM)26% (Jan 30, 1:59 PM)29.55 "Hg (Feb 9, 3:59 AM)
Average44 °F62%30.04 "Hg
* Reported Jan 29 10:59 AM — Feb 13 10:59 AM, Portsmouth, Weather by CustomWeather, © 2016

Note: Actual official high and low records may vary slightly from our data, if they occured in-between our weather recording intervals... More about our weather records

Advertising

Portsmouth Weather History for the Previous 24 Hours

 ConditionsComfort  
Time TempWeatherWind HumidityBarometerVisibility
10:59 AM
Sat, Feb 13
30 °FScattered clouds.18 mph33%30.26 "Hg10 mi
9:59 AM29 °FPassing clouds.23 mph39%30.24 "Hg10 mi
8:59 AM28 °FScattered clouds.28 mph45%30.22 "Hg10 mi
7:59 AM27 °FScattered clouds.18 mph55%30.20 "Hg10 mi
6:59 AM28 °FPartly sunny.16 mph69%30.16 "Hg10 mi
5:59 AM27 °FPassing clouds.9 mph69%30.10 "Hg10 mi
4:59 AM29 °FPassing clouds.10 mph66%30.07 "Hg10 mi
3:59 AM29 °FPassing clouds.14 mph72%30.05 "Hg10 mi
2:59 AM28 °FPassing clouds.9 mph78%30.04 "Hg10 mi
1:59 AM28 °FPassing clouds.8 mph75%30.02 "Hg10 mi
12:59 AM29 °FPassing clouds.10 mph75%30.03 "Hg10 mi
11:59 PM
Fri, Feb 12
28 °FPassing clouds.9 mph78%30.02 "Hg10 mi
10:59 PM28 °FPassing clouds.10 mph78%30.02 "Hg10 mi
9:59 PM28 °FPartly cloudy.8 mph78%30.03 "Hg10 mi
8:59 PM29 °FOvercast.8 mph79%30.02 "Hg10 mi
7:59 PM29 °FMostly cloudy.6 mph79%30.02 "Hg10 mi
6:59 PM29 °FMostly cloudy.5 mph79%30.04 "Hg9 mi
5:59 PM28 °FOvercast.No wind81%30.02 "Hg9 mi
4:59 PM28 °FLight snow. Ice fog.3 mph81%30.06 "Hg3 mi
3:59 PM28 °FLight snow. Ice fog.7 mph81%30.09 "Hg1 mi
3:02 PM29 °FLight snow. Ice fog.6 mph69%30.10 "Hg1 mi
1:59 PM31 °FMostly cloudy.6 mph49%30.15 "Hg10 mi
12:59 PM30 °FMostly cloudy.6 mph49%30.19 "Hg10 mi
Weather by CustomWeather, © 2016

See weather overviewHow to use our weather pages